Surface/Precipitation History
01/17/2019 17:14  to  1/18/2019 17:14
Change End Date:
Date/Time
(MST)
Sf
Temp Chem Water Layer Surface Precipitation
Sfc Pvt Sub Frz Factor Pct Dpth DpthThk IcePct Cond Salin FI Type Intens Accum Rate
01/18/2019 17:13 Ice Warning 31.3F - - 32F 95 0% - - 100% 7 mhos 0 - None None - -
01/18/2019 17:11 Ice Warning 31.1F - - 32F 95 0% - - 100% 7 mhos 0 - None None - -
01/18/2019 17:01 Ice Warning 30.9F - - 32F 95 0% - - 100% 7 mhos 0 - None None - -
01/18/2019 16:59 Ice Warning 30.7F - - 32F 95 0% - - 100% 7 mhos 0 - None None - -
01/18/2019 16:51 Ice Warning 30.9F - - 32F 95 0% - - 100% 7 mhos 0 - None None - -
01/18/2019 16:43 Ice Warning 30.9F - - 32F 95 0% - - 100% 7 mhos 0 - None None - -
01/18/2019 16:41 Ice Warning 30.9F - - 32F 95 0% - - 100% 7 mhos 0 - None None - -
01/18/2019 16:31 Ice Warning 31.5F - - 32F 95 0% - - 100% 8 mhos 0 - None None - -
01/18/2019 16:28 Ice Warning 31.6F - - 32F 95 0% - - 100% 8 mhos 0 - None None - -
01/18/2019 16:21 Wet 32.5F - - 32F 95 0% 0.00 in - 0% 8 mhos 0 - None None - -
01/18/2019 16:13 Wet 33.3F - - 32F 95 0% 0.00 in - 0% 8 mhos 0 - None None - -
01/18/2019 16:11 Wet 33.1F - - 32F 95 0% 0.00 in - 0% 8 mhos 0 - None None - -
01/18/2019 16:01 Wet 33.3F - - 32F 5 0% 0.00 in - 0% 8 mhos 0 - None None - -
01/18/2019 15:59 Wet 33.3F - - 32F 5 0% 0.00 in - 0% 8 mhos 0 - None None - -
01/18/2019 15:51 Wet 33.1F - - 32F 5 0% 0.00 in - 0% 8 mhos 0 - Yes - - -
Date/Time
(MST)
Sf
Temp Chem Water Layer Surface Precipitation
Sfc Pvt Sub Frz Factor Pct Dpth DpthThk IcePct Cond Salin FI Type Intens Accum Rate
01/18/2019 15:43 Wet 33.1F - - 32F 5 0% 0.00 in - 0% 8 mhos 0 - None None - -
01/18/2019 15:41 Wet 32.7F - - 32F 5 0% 0.00 in - 0% 8 mhos 0 - Yes - - -
01/18/2019 15:31 Wet 33.1F - - 32F 5 0% 0.00 in - 0% 8 mhos 0 - Yes - - -
01/18/2019 15:29 Wet 33.3F - - 32F 5 0% 0.00 in - 0% 8 mhos 0 - Yes - - -
01/18/2019 15:20 Wet 34.0F - - 32F 5 0% 0.00 in - 0% 9 mhos 0 - Yes - - -
01/18/2019 15:13 Wet 35.6F - - 32F 5 0% 0.00 in - 0% 9 mhos 0 - None None - -
01/18/2019 15:10 Wet 36.1F - - 32F 5 0% 0.00 in - 0% 9 mhos 0 - None None - -
01/18/2019 15:00 Wet 40.3F - - 32F 5 0% 0.00 in - 0% 10 mhos 0 - None None - -
01/18/2019 14:58 Wet 40.5F - - 32F 5 0% 0.00 in - 0% 10 mhos 0 - None None - -
01/18/2019 14:50 Wet 41.5F - - 32F 5 0% 0.00 in - 0% 10 mhos 0 - None None - -
01/18/2019 14:44 Wet 41.7F - - 32F 70 0% 0.00 in - 0% 11 mhos 0 - None None - -
01/18/2019 14:40 Wet 42.1F - - 32F 95 0% 0.00 in - 0% 11 mhos 0 - None None - -
01/18/2019 14:30 Wet 42.4F - - 32F 5 0% 0.00 in - 0% 11 mhos 0 - None None - -
01/18/2019 14:28 Wet 42.4F - - 32F 5 0% 0.00 in - 0% 11 mhos 0 - None None - -
01/18/2019 14:20 Wet 41.2F - - 32F 95 0% 0.00 in - 0% 11 mhos 0 - None None - -
Date/Time
(MST)
Sf
Temp Chem Water Layer Surface Precipitation
Sfc Pvt Sub Frz Factor Pct Dpth DpthThk IcePct Cond Salin FI Type Intens Accum Rate
01/18/2019 14:13 Wet 41.9F - - 32F 95 0% 0.00 in - 0% 11 mhos 0 - None None - -
01/18/2019 14:10 Wet 42.6F - - 32F 95 0% 0.00 in - 0% 11 mhos 0 - None None - -
01/18/2019 14:00 Wet 44.1F - - 32F 95 0% 0.00 in - 0% 14 mhos 0 - None None - -
01/18/2019 13:58 Wet 43.9F - - 32F 95 0% 0.00 in - 0% 14 mhos 0 - None None - -
01/18/2019 13:50 Wet 43.3F - - 32F 95 0% 0.00 in - 0% 15 mhos 0 - None None - -
01/18/2019 13:44 Wet 43.5F - - 32F 95 0% 0.00 in - 0% 15 mhos 0 - None None - -
01/18/2019 13:40 Wet 44.6F - - 32F 95 0% 0.00 in - 0% 16 mhos 0 - None None - -
01/18/2019 13:30 Wet 44.2F - - 32F 95 0% 0.00 in - 0% 17 mhos 0 - None None - -
01/18/2019 13:29 Wet 43.9F - - 32F 95 0% 0.00 in - 0% 17 mhos 0 - None None - -
01/18/2019 13:20 Wet 40.1F - - 32F 95 0% 0.00 in - 0% 16 mhos 0 - None None - -
01/18/2019 13:14 Wet 38.5F - - 32F 95 0% 0.00 in - 0% 17 mhos 0 - None None - -
01/18/2019 13:10 Wet 36.1F - - 32F 95 0% 0.10 in - 0% 16 mhos 0 - None None - -
01/18/2019 13:00 Ice Warning 29.8F - - 32F 95 0% - - 100% 11 mhos 0 - None None - -
01/18/2019 12:58 Ice Warning 29.8F - - 32F 95 0% - - 100% 13 mhos 0 - None None - -
01/18/2019 12:50 Ice Warning 29.5F - - 32F 95 0% - - 100% 12 mhos 0 - None None - -
Date/Time
(MST)
Sf
Temp Chem Water Layer Surface Precipitation
Sfc Pvt Sub Frz Factor Pct Dpth DpthThk IcePct Cond Salin FI Type Intens Accum Rate
01/18/2019 12:43 Ice Warning 29.1F - - 32F 95 0% - - 100% 7 mhos 0 - None None - -
01/18/2019 12:40 Ice Warning 28.9F - - 32F 95 0% - - 100% 6 mhos 0 - None None - -
01/18/2019 12:30 Ice Warning 28.6F - - 32F 95 0% - - 100% 3 mhos 0 - None None - -
01/18/2019 12:28 Ice Warning 28.4F - - 32F 95 0% - - 100% 3 mhos 0 - None None - -
01/18/2019 12:20 Ice Warning 28.0F - - 32F 95 0% - - 100% 3 mhos 0 - None None - -
01/18/2019 12:13 Ice Warning 27.9F - - 32F 95 0% - - 100% 3 mhos 0 - None None - -
01/18/2019 12:10 Ice Warning 27.7F - - 32F 95 0% - - 100% 3 mhos 0 - None None - -
01/18/2019 11:59 Ice Warning 27.3F - - 32F 95 0% - - 100% 2 mhos 0 - None None - -
01/18/2019 11:58 Ice Warning 27.3F - - 32F 95 0% - - 100% 2 mhos 0 - None None - -
01/18/2019 11:49 Ice Warning 26.8F - - 32F 95 0% - - 100% 2 mhos 0 - None None - -
01/18/2019 11:44 Ice Warning 26.8F - - 32F 95 0% - - 100% 2 mhos 0 - None None - -
01/18/2019 11:39 Ice Warning 26.6F - - 32F 95 0% - - 100% 2 mhos 0 - Yes - - -
01/18/2019 11:29 Ice Warning 26.4F - - 32F 95 0% - - 100% 2 mhos 0 - None None - -
01/18/2019 11:28 Ice Warning 26.4F - - 32F 95 0% - - 100% 2 mhos 0 - Yes - - -
01/18/2019 11:19 Ice Warning 26.1F - - 32F 95 0% - - 100% 2 mhos 0 - None None - -
Date/Time
(MST)
Sf
Temp Chem Water Layer Surface Precipitation
Sfc Pvt Sub Frz Factor Pct Dpth DpthThk IcePct Cond Salin FI Type Intens Accum Rate
01/18/2019 11:13 Ice Warning 25.9F - - 32F 95 0% - - 100% 2 mhos 0 - None None - -
01/18/2019 11:09 Ice Warning 25.7F - - 32F 95 0% - - 100% 2 mhos 0 - Yes - - -
01/18/2019 10:59 Ice Warning 25.5F - - 32F 95 0% - - 100% 2 mhos 0 - None None - -
01/18/2019 10:59 Ice Warning 25.5F - - 32F 95 0% - - 100% 2 mhos 0 - None None - -
01/18/2019 10:49 Ice Warning 25.0F - - 32F 95 0% - - 100% 2 mhos 0 - None None - -
01/18/2019 10:43 Ice Warning 24.6F - - 32F 95 0% - - 100% 2 mhos 0 - None None - -
01/18/2019 10:39 Ice Warning 24.6F - - 32F 95 0% - - 100% 2 mhos 0 - Yes - - -
01/18/2019 10:29 Ice Warning 24.1F - - 32F 95 0% - - 100% 2 mhos 0 - None None - -
01/18/2019 10:28 Ice Warning 24.3F - - 32F 95 0% - - 100% 2 mhos 0 - None None - -
01/18/2019 10:19 Ice Warning 23.5F - - 32F 95 0% - - 100% 2 mhos 0 - None None - -
01/18/2019 10:13 Ice Warning 23.5F - - 32F 95 0% - - 100% 2 mhos 0 - None None - -
01/18/2019 10:09 Ice Warning 23.4F - - 32F 95 0% - - 100% 2 mhos 0 - None None - -
01/18/2019 09:59 Ice Warning 22.8F - - 32F 95 0% - - 100% 2 mhos 0 - None None - -
01/18/2019 09:58 Ice Warning 22.6F - - 32F 95 0% - - 100% 2 mhos 0 - None None - -
01/18/2019 09:49 Ice Warning 22.1F - - 32F 95 0% - - 100% 2 mhos 0 - None None - -
Date/Time
(MST)
Sf
Temp Chem Water Layer Surface Precipitation
Sfc Pvt Sub Frz Factor Pct Dpth DpthThk IcePct Cond Salin FI Type Intens Accum Rate
01/18/2019 09:43 Ice Warning 21.7F - - 32F 95 0% - - 100% 2 mhos 0 - None None - -
01/18/2019 09:39 Ice Warning 21.6F - - 32F 95 0% - - 100% 2 mhos 0 - None None - -
01/18/2019 09:29 Ice Warning 21.2F - - 32F 95 0% - - 100% 2 mhos 0 - None None - -
01/18/2019 09:28 Ice Warning 21.0F - - 32F 95 0% - - 100% 2 mhos 0 - None None - -
01/18/2019 09:19 Ice Warning 20.5F - - 32F 95 0% - - 100% 2 mhos 0 - None None - -
01/18/2019 09:13 Ice Warning 20.3F - - 32F 95 0% - - 100% 2 mhos 0 - None None - -
01/18/2019 09:09 Ice Warning 20.1F - - 32F 95 0% - - 100% 2 mhos 0 - Yes - - -
01/18/2019 08:59 Ice Warning 19.8F - - 32F 95 0% - - 100% 2 mhos 0 - None None - -
01/18/2019 08:58 Ice Warning 19.8F - - 32F 95 0% - - 100% 2 mhos 0 - None None - -
01/18/2019 08:49 Ice Warning 19.8F - - 32F 80 0% - - 100% 2 mhos 0 - Yes - - -
01/18/2019 08:43 Ice Warning 19.4F - - 32F 95 0% - - 100% 2 mhos 0 - None None - -
01/18/2019 08:39 Ice Warning 19.2F - - 32F 85 0% - - 100% 2 mhos 0 - None None - -
01/18/2019 08:28 Ice Warning 19.2F - - 32F 95 0% - - 100% 2 mhos 0 - None None - -
01/18/2019 08:18 Ice Warning 19.0F - - 32F 95 0% - - 100% 2 mhos 0 - Yes - - -
01/18/2019 08:14 Ice Warning 19.0F - - 32F 95 0% - - 100% 2 mhos 0 - None None - -
Date/Time
(MST)
Sf
Temp Chem Water Layer Surface Precipitation
Sfc Pvt Sub Frz Factor Pct Dpth DpthThk IcePct Cond Salin FI Type Intens Accum Rate
01/18/2019 08:08 Ice Warning 19.0F - - 32F 95 0% - - 100% 2 mhos 0 - None None - -
01/18/2019 07:59 Ice Warning 18.7F - - 32F 95 0% - - 100% 2 mhos 0 - None None - -
01/18/2019 07:58 Ice Warning 18.7F - - 32F 95 0% - - 100% 2 mhos 0 - None None - -
01/18/2019 07:48 Ice Warning 18.7F - - 32F 95 0% - - 100% 2 mhos 0 - None None - -
01/18/2019 07:43 Ice Warning 18.7F - - 32F 95 0% - - 100% 2 mhos 0 - None None - -
01/18/2019 07:38 Ice Warning 18.7F - - 32F 95 0% - - 100% 2 mhos 0 - None None - -
01/18/2019 07:29 Ice Warning 18.9F - - 32F 95 0% - - 100% 2 mhos 0 - None None - -
01/18/2019 07:28 Ice Warning 19.0F - - 32F 95 0% - - 100% 2 mhos 0 - None None - -
01/18/2019 07:18 Ice Warning 19.2F - - 32F 95 0% - - 100% 2 mhos 0 - Yes - - -
01/18/2019 07:14 Ice Warning 19.4F - - 32F 90 0% - - 100% 2 mhos 0 - None None - -
01/18/2019 07:08 Ice Warning 19.8F - - 32F 95 0% - - 100% 2 mhos 0 - Yes - - -
01/18/2019 06:58 Ice Warning 20.3F - - 32F 95 0% - - 100% 2 mhos 0 - None None - -
01/18/2019 06:58 Ice Warning 20.3F - - 32F 95 0% - - 100% 2 mhos 0 - None None - -
01/18/2019 06:48 Ice Warning 20.7F - - 32F 95 0% - - 100% 2 mhos 0 - Yes - - -
01/18/2019 06:43 Ice Warning 21.2F - - 32F 95 0% - - 100% 2 mhos 0 - Yes - - -
Date/Time
(MST)
Sf
Temp Chem Water Layer Surface Precipitation
Sfc Pvt Sub Frz Factor Pct Dpth DpthThk IcePct Cond Salin FI Type Intens Accum Rate
01/18/2019 06:38 Ice Warning 21.2F - - 32F 95 0% - - 100% 2 mhos 0 - Yes - - -
01/18/2019 06:28 Ice Warning 21.4F - - 32F 95 0% - - 100% 2 mhos 0 - Yes - - -
01/18/2019 06:28 Ice Warning 21.4F - - 32F 95 0% - - 100% 2 mhos 0 - Yes - - -
01/18/2019 06:18 Ice Warning 21.2F - - 32F 95 0% - - 100% 2 mhos 0 - Yes - - -
01/18/2019 06:13 Ice Warning 21.2F - - 32F 95 0% - - 100% 2 mhos 0 - Yes - - -
01/18/2019 06:08 Ice Warning 21.0F - - 32F 95 0% - - 100% 2 mhos 0 - Yes - - -
01/18/2019 05:59 Ice Warning 20.8F - - 32F 95 0% - - 100% 2 mhos 0 - Yes - - -
01/18/2019 05:58 Ice Warning 20.8F - - 32F 95 0% - - 100% 2 mhos 0 - Yes - - -
01/18/2019 05:48 Ice Warning 20.7F - - 32F 95 0% - - 100% 2 mhos 0 - None None - -
01/18/2019 05:44 Ice Warning 20.5F - - 32F 95 0% - - 100% 2 mhos 0 - None None - -
01/18/2019 05:38 Ice Warning 20.3F - - 32F 95 0% - - 100% 2 mhos 0 - None None - -
01/18/2019 05:29 Ice Warning 20.1F - - 32F 95 0% - - 100% 2 mhos 0 - None None - -
01/18/2019 05:28 Ice Warning 20.1F - - 32F 95 0% - - 100% 2 mhos 0 - Yes - - -
01/18/2019 05:18 Ice Warning 19.9F - - 32F 95 0% - - 100% 2 mhos 0 - None None - -
01/18/2019 05:13 Ice Warning 19.9F - - 32F 95 0% - - 100% 2 mhos 0 - None None - -
Date/Time
(MST)
Sf
Temp Chem Water Layer Surface Precipitation
Sfc Pvt Sub Frz Factor Pct Dpth DpthThk IcePct Cond Salin FI Type Intens Accum Rate
01/18/2019 05:08 Ice Warning 19.8F - - 32F 95 0% - - 100% 2 mhos 0 - None None - -
01/18/2019 04:58 Ice Warning 19.4F - - 32F 95 0% - - 100% 2 mhos 0 - Yes - - -
01/18/2019 04:57 Ice Warning 19.4F - - 32F 90 0% - - 100% 2 mhos 0 - Yes - - -
01/18/2019 04:47 Ice Warning 19.2F - - 32F 95 0% - - 100% 2 mhos 0 - None None - -
01/18/2019 04:45 Ice Warning 19.0F - - 32F 95 0% - - 100% 1 mhos 0 - None None - -
01/18/2019 04:37 Ice Warning 19.0F - - 32F 95 0% - - 100% 1 mhos 0 - None None - -
01/18/2019 04:28 Ice Warning 18.7F - - 32F 95 0% - - 100% 1 mhos 0 - None None - -
01/18/2019 04:27 Ice Warning 18.7F - - 32F 95 0% - - 100% 1 mhos 0 - None None - -
01/18/2019 04:17 Ice Warning 18.9F - - 32F 95 0% - - 100% 1 mhos 0 - None None - -
01/18/2019 04:13 Ice Warning 18.9F - - 32F 90 0% - - 100% 1 mhos 0 - None None - -
01/18/2019 04:07 Ice Warning 19.0F - - 32F 95 0% - - 100% 1 mhos 0 - None None - -
01/18/2019 03:58 Ice Warning 19.2F - - 32F 90 0% - - 100% 2 mhos 0 - None None - -
01/18/2019 03:57 Ice Warning 19.6F - - 32F 95 0% - - 100% 2 mhos 0 - None None - -
01/18/2019 03:47 Ice Warning 19.9F - - 32F 95 0% - - 100% 2 mhos 0 - None None - -
01/18/2019 03:43 Ice Warning 19.8F - - 32F 95 0% - - 100% 2 mhos 0 - None None - -
Date/Time
(MST)
Sf
Temp Chem Water Layer Surface Precipitation
Sfc Pvt Sub Frz Factor Pct Dpth DpthThk IcePct Cond Salin FI Type Intens Accum Rate
01/18/2019 03:37 Ice Warning 19.9F - - 32F 90 0% - - 100% 2 mhos 0 - Yes - - -
01/18/2019 03:28 Ice Warning 20.3F - - 32F 95 0% - - 100% 2 mhos 0 - Yes - - -
01/18/2019 03:27 Ice Warning 20.3F - - 32F 95 0% - - 100% 2 mhos 0 - None None - -
01/18/2019 03:17 Ice Warning 20.3F - - 32F 95 0% - - 100% 2 mhos 0 - None None - -
01/18/2019 03:13 Ice Warning 20.3F - - 32F 95 0% - - 100% 2 mhos 0 - Yes - - -
01/18/2019 03:07 Ice Warning 20.5F - - 32F 95 0% - - 100% 2 mhos 0 - Yes - - -
01/18/2019 02:58 Ice Warning 20.3F - - 32F 95 0% - - 100% 2 mhos 0 - None None - -
01/18/2019 02:57 Ice Warning 20.3F - - 32F 95 0% - - 100% 2 mhos 0 - Yes - - -
01/18/2019 02:47 Ice Warning 20.3F - - 32F 95 0% - - 100% 2 mhos 0 - None None - -
01/18/2019 02:43 Ice Warning 20.3F - - 32F 90 0% - - 100% 2 mhos 0 - Yes - - -
01/18/2019 02:37 Ice Warning 20.3F - - 32F 95 0% - - 100% 2 mhos 0 - None None - -
01/18/2019 02:29 Ice Warning 20.3F - - 32F 95 0% - - 100% 2 mhos 0 - None None - -
01/18/2019 02:27 Ice Warning 20.3F - - 32F 95 0% - - 100% 2 mhos 0 - None None - -
01/18/2019 02:17 Ice Warning 20.3F - - 32F 95 0% - - 100% 2 mhos 0 - None None - -
01/18/2019 02:13 Ice Warning 20.3F - - 32F 90 0% - - 100% 2 mhos 0 - None None - -
Date/Time
(MST)
Sf
Temp Chem Water Layer Surface Precipitation
Sfc Pvt Sub Frz Factor Pct Dpth DpthThk IcePct Cond Salin FI Type Intens Accum Rate
01/18/2019 02:07 Ice Warning 20.3F - - 32F 85 0% - - 100% 2 mhos 0 - Yes - - -
01/18/2019 01:58 Ice Warning 20.8F - - 32F 85 0% - - 100% 2 mhos 0 - Yes - - -
01/18/2019 01:57 Ice Warning 21.0F - - 32F 95 0% - - 100% 2 mhos 0 - Yes - - -
01/18/2019 01:47 Ice Warning 21.0F - - 32F 95 0% - - 100% 2 mhos 0 - Yes - - -
01/18/2019 01:37 Ice Warning 21.2F - - 32F 95 0% - - 100% 2 mhos 0 - Yes - - -
01/18/2019 01:28 Ice Warning 21.4F - - 32F 85 0% - - 100% 2 mhos 0 - Yes - - -
01/18/2019 01:26 Ice Warning 21.6F - - 32F 85 0% - - 100% 2 mhos 0 - Yes - - -
01/18/2019 01:16 Ice Warning 21.4F - - 32F 95 0% - - 100% 2 mhos 0 - Yes - - -
01/18/2019 01:13 Ice Warning 21.6F - - 32F 95 0% - - 100% 2 mhos 0 - Yes - - -
01/18/2019 01:06 Ice Warning 21.6F - - 32F 90 0% - - 100% 2 mhos 0 - Yes - - -
01/18/2019 00:59 Ice Warning 21.4F - - 32F 90 0% - - 100% 2 mhos 0 - Yes - - -
01/18/2019 00:56 Ice Warning 21.4F - - 32F 85 0% - - 100% 2 mhos 0 - Yes - - -
01/18/2019 00:46 Ice Warning 21.4F - - 32F 90 0% - - 100% 2 mhos 0 - Yes - - -
01/18/2019 00:43 Ice Warning 21.4F - - 32F 90 0% - - 100% 2 mhos 0 - Yes - - -
01/18/2019 00:36 Ice Warning 21.2F - - 32F 90 0% - - 100% 2 mhos 0 - Yes - - -
Date/Time
(MST)
Sf
Temp Chem Water Layer Surface Precipitation
Sfc Pvt Sub Frz Factor Pct Dpth DpthThk IcePct Cond Salin FI Type Intens Accum Rate
01/18/2019 00:28 Ice Warning 21.4F - - 32F 95 0% - - 100% 2 mhos 0 - Yes - - -
01/18/2019 00:26 Ice Warning 21.4F - - 32F 95 0% - - 100% 2 mhos 0 - Yes - - -
01/18/2019 00:16 Ice Warning 21.4F - - 32F 95 0% - - 100% 2 mhos 0 - Yes - - -
01/18/2019 00:13 Ice Warning 21.4F - - 32F 95 0% - - 100% 2 mhos 0 - Yes - - -
01/18/2019 00:06 Ice Warning 21.4F - - 32F 95 0% - - 100% 2 mhos 0 - Yes - - -
01/17/2019 23:58 Ice Warning 21.6F - - 32F 95 0% - - 100% 2 mhos 0 - None None - -
01/17/2019 23:56 Ice Warning 21.6F - - 32F 95 0% - - 100% 2 mhos 0 - None None - -
01/17/2019 23:46 Ice Warning 21.7F - - 32F 95 0% - - 100% 2 mhos 0 - None None - -
01/17/2019 23:36 Ice Warning 21.9F - - 32F 95 0% - - 100% 2 mhos 0 - Yes - - -
01/17/2019 23:28 Ice Warning 21.9F - - 32F 95 0% - - 100% 2 mhos 0 - None None - -
01/17/2019 23:26 Ice Warning 22.1F - - 32F 95 0% - - 100% 2 mhos 0 - None None - -
01/17/2019 23:16 Ice Warning 22.1F - - 32F 95 0% - - 100% 2 mhos 0 - Yes - - -
01/17/2019 23:13 Ice Warning 21.9F - - 32F 95 0% - - 100% 2 mhos 0 - Yes - - -
01/17/2019 23:06 Ice Warning 22.1F - - 32F 95 0% - - 100% 2 mhos 0 - Yes - - -
01/17/2019 22:56 Ice Warning 22.1F - - 32F 95 0% - - 100% 2 mhos 0 - Yes - - -
Date/Time
(MST)
Sf
Temp Chem Water Layer Surface Precipitation
Sfc Pvt Sub Frz Factor Pct Dpth DpthThk IcePct Cond Salin FI Type Intens Accum Rate
01/17/2019 22:46 Ice Warning 22.1F - - 32F 95 0% - - 100% 2 mhos 0 - Yes - - -
01/17/2019 22:43 Ice Warning 22.1F - - 32F 95 0% - - 100% 2 mhos 0 - Yes - - -
01/17/2019 22:36 Ice Warning 22.1F - - 32F 90 0% - - 100% 2 mhos 0 - Yes - - -
01/17/2019 22:28 Ice Warning 22.3F - - 32F 95 0% - - 100% 2 mhos 0 - Yes - - -
01/17/2019 22:26 Ice Warning 22.1F - - 32F 95 0% - - 100% 2 mhos 0 - Yes - - -
01/17/2019 22:16 Ice Warning 22.3F - - 32F 95 0% - - 100% 2 mhos 0 - Yes - - -
01/17/2019 22:13 Ice Warning 22.3F - - 32F 90 0% - - 100% 2 mhos 0 - Yes - - -
01/17/2019 22:06 Ice Warning 22.3F - - 32F 90 0% - - 100% 2 mhos 0 - Yes - - -
01/17/2019 21:58 Ice Warning 22.5F - - 32F 85 0% - - 100% 2 mhos 0 - Yes - - -
01/17/2019 21:55 Ice Warning 22.5F - - 32F 85 0% - - 100% 2 mhos 0 - Yes - - -
01/17/2019 21:45 Ice Warning 22.3F - - 32F 95 0% - - 100% 2 mhos 0 - Yes - - -
01/17/2019 21:43 Ice Warning 22.5F - - 32F 95 0% - - 100% 2 mhos 0 - Yes - - -
01/17/2019 21:35 Ice Warning 22.3F - - 32F 95 0% - - 100% 2 mhos 0 - Yes - - -
01/17/2019 21:28 Ice Warning 22.5F - - 32F 95 0% - - 100% 2 mhos 0 - Yes - - -
01/17/2019 21:25 Ice Warning 22.5F - - 32F 95 0% - - 100% 2 mhos 0 - Yes - - -
Date/Time
(MST)
Sf
Temp Chem Water Layer Surface Precipitation
Sfc Pvt Sub Frz Factor Pct Dpth DpthThk IcePct Cond Salin FI Type Intens Accum Rate
01/17/2019 21:15 Ice Warning 22.6F - - 32F 95 0% - - 100% 2 mhos 0 - Yes - - -
01/17/2019 21:13 Ice Warning 22.5F - - 32F 95 0% - - 100% 2 mhos 0 - Yes - - -
01/17/2019 21:05 Ice Warning 22.5F - - 32F 95 0% - - 100% 2 mhos 0 - Yes - - -
01/17/2019 20:59 Ice Warning 22.5F - - 32F 95 0% - - 100% 2 mhos 0 - Yes - - -
01/17/2019 20:55 Ice Warning 22.5F - - 32F 95 0% - - 100% 2 mhos 0 - Yes - - -
01/17/2019 20:45 Ice Warning 22.5F - - 32F 95 0% - - 100% 2 mhos 0 - Yes - - -
01/17/2019 20:43 Ice Warning 22.5F - - 32F 95 0% - - 100% 2 mhos 0 - Yes - - -
01/17/2019 20:35 Ice Warning 22.6F - - 32F 95 0% - - 100% 2 mhos 0 - Yes - - -
01/17/2019 20:25 Ice Warning 22.6F - - 32F 95 0% - - 100% 2 mhos 0 - Yes - - -
01/17/2019 20:15 Ice Warning 22.6F - - 32F 95 0% - - 100% 2 mhos 0 - Yes - - -
01/17/2019 20:14 Ice Warning 22.8F - - 32F 95 0% - - 100% 2 mhos 0 - Yes - - -
01/17/2019 20:05 Ice Warning 22.6F - - 32F 95 0% - - 100% 2 mhos 0 - Yes - - -
01/17/2019 19:58 Ice Warning 22.6F - - 32F 95 0% - - 100% 2 mhos 0 - Yes - - -
01/17/2019 19:55 Ice Warning 22.5F - - 32F 95 0% - - 100% 2 mhos 0 - Yes - - -
01/17/2019 19:45 Ice Warning 22.3F - - 32F 95 0% - - 100% 2 mhos 0 - Yes - - -
Date/Time
(MST)
Sf
Temp Chem Water Layer Surface Precipitation
Sfc Pvt Sub Frz Factor Pct Dpth DpthThk IcePct Cond Salin FI Type Intens Accum Rate
01/17/2019 19:43 Ice Warning 22.3F - - 32F 95 0% - - 100% 2 mhos 0 - Yes - - -
01/17/2019 19:35 Ice Warning 22.3F - - 32F 95 0% - - 100% 2 mhos 0 - Yes - - -
01/17/2019 19:28 Ice Warning 22.3F - - 32F 95 0% - - 100% 2 mhos 0 - None None - -
01/17/2019 19:25 Ice Warning 22.3F - - 32F 95 0% - - 100% 2 mhos 0 - None None - -
01/17/2019 19:15 Ice Warning 22.3F - - 32F 95 0% - - 100% 2 mhos 0 - Yes - - -
01/17/2019 19:13 Ice Warning 22.3F - - 32F 95 0% - - 100% 2 mhos 0 - Yes - - -
01/17/2019 19:05 Ice Warning 22.3F - - 32F 95 0% - - 100% 2 mhos 0 - Yes - - -
01/17/2019 18:58 Ice Warning 22.3F - - 32F 95 0% - - 100% 2 mhos 0 - Yes - - -
01/17/2019 18:55 Ice Warning 22.1F - - 32F 95 0% - - 100% 2 mhos 0 - Yes - - -
01/17/2019 18:45 Ice Warning 22.1F - - 32F 95 0% - - 100% 2 mhos 0 - Yes - - -
01/17/2019 18:43 Ice Warning 22.1F - - 32F 95 0% - - 100% 2 mhos 0 - Yes - - -
01/17/2019 18:35 Ice Warning 22.3F - - 32F 95 0% - - 100% 2 mhos 0 - Yes - - -
01/17/2019 18:29 Ice Warning 22.3F - - 32F 95 0% - - 100% 2 mhos 0 - None None - -
01/17/2019 18:24 Ice Warning 22.5F - - 32F 95 0% - - 100% 2 mhos 0 - None None - -
01/17/2019 18:14 Ice Warning 22.5F - - 32F 95 0% - - 100% 2 mhos 0 - None None - -
Date/Time
(MST)
Sf
Temp Chem Water Layer Surface Precipitation
Sfc Pvt Sub Frz Factor Pct Dpth DpthThk IcePct Cond Salin FI Type Intens Accum Rate
01/17/2019 18:13 Ice Warning 22.5F - - 32F 95 0% - - 100% 2 mhos 0 - None None - -
01/17/2019 18:04 Ice Warning 22.5F - - 32F 95 0% - - 100% 2 mhos 0 - None None - -
01/17/2019 17:58 Ice Warning 22.5F - - 32F 95 0% - - 100% 2 mhos 0 - None None - -
01/17/2019 17:54 Ice Warning 22.5F - - 32F 95 0% - - 100% 2 mhos 0 - None None - -
01/17/2019 17:44 Ice Warning 22.5F - - 32F 95 0% - - 100% 2 mhos 0 - None None - -
01/17/2019 17:43 Ice Warning 22.5F - - 32F 95 0% - - 100% 2 mhos 0 - None None - -
01/17/2019 17:34 Ice Warning 22.6F - - 32F 95 0% - - 100% 2 mhos 0 - None None - -
01/17/2019 17:28 Ice Warning 22.8F - - 32F 95 0% - - 100% 2 mhos 0 - None None - -
01/17/2019 17:24 Ice Warning 22.8F - - 32F 95 0% - - 100% 2 mhos 0 - None None - -
01/17/2019 17:14 Ice Warning 23.0F - - 32F 95 0% - - 100% 2 mhos 0 - None None - -
01/17/2019 17:14 Ice Warning 23.0F - - 32F 95 0% - - 100% 2 mhos 0 - None None - -
Change End Date:

Copyright © 1998-2015 Vaisala, Inc.
All Rights Reserved
Send comments about the data to:
SCAN Web ® is a registered trademark of Vaisala, Inc.
SCAN Web Version 6.0